Weather in Salon-de-Provence

France     43°38′37″N   5°05′42″E
temp.,
°C
wind,
m/s
gust,
m/s
humid.,
%
clouds,
%
prec.,
mm/h
press.,
hPa
HPBL,
m
20 january, wed
wed2001:00+7e466758 0.1 1021182
04:00+7e478291 0.2 1018184
07:00+8ese4118995 0.6 1017483
10:00+10se6138798 0.5 1016841
13:00+11se9147699 0.8 10141223
16:00+12se10157292 0.2 10111410
19:00+11se10178096 0.3 10111173
22:00+11se10178098 1.0 10111138
21 january, thu
thu2101:00+10se6138497 1.9 1010983
04:00+10se51286100 0.5 1010776
07:00+10ese51086100 0.9 1011533
10:00+10ese5108098 0.1 1011622
13:00+12ese597499 0.1 10101042
16:00+12se61281100 0.1 10071031
19:00+11sse61287100 0.4 1007780
22:00+11ese5991100 0.4 1006296
22 january, fri
fri2201:00+9se239383 0.6 100756
04:00+8ene229548 0.1 100522
07:00+7ese339374 0.1 100487
10:00+10ese41282100 0.0 1000673
13:00+13s101680100 0.3 9961381
16:00+11w41084100 3.0 992653
19:00+7wsw41181100 3.6 993915
22:00+7wnw61283100 0.1 996568
23 january, sat
sat2301:00+7wnw8175691 0.2 9991625
04:00+5wnw5137257 0.0 1001524
07:00+3wnw388137 0.0 1002229
10:00+6wnw36730 0.0 1002330
13:00+7w5117440 0.7 10011259
16:00+9wnw8165391 0.3 10012026
19:00+5wnw7155745 0.3 1003827
22:00+4wnw366494 0.0 1004179
24 january, sun
sun2401:00+3nw226797 0.0 100446
04:00+3n496784 0.0 1003257
07:00+2nnw5126786 0.0 1002412
10:00+4nnw8146321 0.0 1003664
13:00+7nnw8134211 0.0 10031154
16:00+8nw374831 0.0 1003949
19:00+4wnw378158 0.0 1006216
22:00+2nw34860 0.0 100787